Weather History for Franklin, NC

Change the Weather History Date:

Thursday, January 3, 2013

  Actual Average (KTOC) Record (KTOC)
Temperature  
Mean Temperature 32 °F -  
Max Temperature 43 °F 52 °F 39 °F (2014)
Min Temperature 21 °F 34 °F 21 °F (2014)
Degree Days  
Heating Degree Days 33    
Moisture  
Dew Point 30 °F    
Average Humidity 79    
Maximum Humidity 97    
Minimum Humidity 53    
Precipitation  
Precipitation 0.00 in - - ()
Sea Level Pressure  
Sea Level Pressure 30.16 in    
Wind  
Wind Speed 3 mph (NW)    
Max Wind Speed 12 mph    
Max Gust Speed 16 mph    
Visibility 10 miles    
Events      
Averages and records for this station are not official NWS values.
T = Trace of Precipitation, MM = Missing Value Source: NWS Daily Summary

Daily Weather History Graph

Daily Weather History Graph

Search for Another Location

Airport:

Trip Planner

Search our weather history database for the weather conditions in past years. The results will help you decide how hot, cold, wet, or windy it might be!

Date:

Astronomy

Jan. 03, 2013 Rise Set
Actual Time 7:42 AM EST 5:34 PM EST
Civil Twilight 7:14 AM EST 6:02 PM EST
Nautical Twilight 6:42 AM EST 6:33 PM EST
Astronomical Twilight 6:12 AM EST 7:04 PM EST
Moon 11:52 PM EST (1/3) 11:08 AM EST (1/3)
Length of Visible Light 10h 47m
Length of Day
9h 51m
Waning Gibbous, 65% of the Moon is Illuminated
Jan 3
Waning Gibbous
Jan 4
Last Quarter
Jan 11
New
Jan 18
First Quarter
Jan 26
Full

Hourly Weather History & Observations

Time (EST) Temp. Windchill Dew Point Humidity Pressure Visibility Wind Dir Wind Speed Gust Speed Precip Events Conditions
12:15 AM 36.5 °F - 34.9 °F 94% 30.08 in 10.0 mi Calm Calm - N/A   Mostly Cloudy
12:35 AM 36.5 °F 33.9 °F 35.1 °F 95% 30.10 in 10.0 mi WNW 3.5 mph - N/A   Scattered Clouds
12:55 AM 37.0 °F 34.5 °F 35.2 °F 93% 30.10 in 10.0 mi SSW 3.5 mph - N/A   Scattered Clouds
1:15 AM 37.4 °F - 34.9 °F 91% 30.09 in 10.0 mi Calm Calm - N/A   Clear
1:35 AM 36.5 °F 33.9 °F 34.7 °F 93% 30.09 in 10.0 mi NNE 3.5 mph - N/A   Clear
1:55 AM 36.1 °F - 34.9 °F 95% 30.09 in 10.0 mi Calm Calm - N/A   Mostly Cloudy
2:15 AM 35.8 °F - 34.7 °F 96% 30.08 in 10.0 mi Calm Calm - N/A   Mostly Cloudy
2:35 AM 35.6 °F - 34.3 °F 95% 30.08 in 10.0 mi Calm Calm - N/A   Mostly Cloudy
2:55 AM 35.8 °F - 34.9 °F 97% 30.08 in 10.0 mi Calm Calm - N/A   Overcast
3:15 AM 36.5 °F 32.7 °F 35.2 °F 95% 30.09 in 10.0 mi West 4.6 mph - N/A   Overcast
3:35 AM 36.5 °F 33.9 °F 35.6 °F 97% 30.09 in 10.0 mi West 3.5 mph - N/A   Overcast
3:55 AM 36.7 °F - 35.6 °F 96% 30.09 in 10.0 mi Calm Calm - N/A   Overcast
4:15 AM 36.9 °F - 35.6 °F 95% 30.08 in 10.0 mi Calm Calm - N/A   Overcast
4:35 AM 37.0 °F - 35.6 °F 95% 30.10 in 10.0 mi Calm Calm - N/A   Overcast
4:55 AM 36.7 °F - 35.4 °F 95% 30.09 in 10.0 mi Calm Calm - N/A   Overcast
5:15 AM 36.9 °F - 35.1 °F 93% 30.09 in 10.0 mi Calm Calm - N/A   Overcast
5:35 AM 36.9 °F - 35.2 °F 94% 30.10 in 10.0 mi Calm Calm - N/A   Overcast
5:55 AM 36.7 °F - 34.7 °F 93% 30.11 in 10.0 mi Calm Calm - N/A   Overcast
6:15 AM 36.7 °F 34.1 °F 34.9 °F 93% 30.11 in 10.0 mi West 3.5 mph - N/A   Overcast
6:35 AM 36.5 °F - 34.7 °F 93% 30.11 in 10.0 mi Calm Calm - N/A   Overcast
6:55 AM 36.1 °F - 34.7 °F 94% 30.11 in 10.0 mi Calm Calm - N/A   Overcast
7:15 AM 36.5 °F 33.9 °F 34.9 °F 94% 30.12 in 10.0 mi WNW 3.5 mph - N/A   Overcast
7:35 AM 36.3 °F - 34.7 °F 94% 30.12 in 10.0 mi Calm Calm - N/A   Overcast
7:55 AM 36.5 °F 33.9 °F 34.5 °F 93% 30.13 in 10.0 mi West 3.5 mph - N/A   Overcast
8:15 AM 36.5 °F 33.9 °F 34.0 °F 91% 30.13 in 10.0 mi West 3.5 mph - N/A   Overcast
8:35 AM 36.5 °F - 33.3 °F 88% 30.13 in 10.0 mi Calm Calm - N/A   Overcast
8:55 AM 36.5 °F - 32.0 °F 84% 30.14 in 10.0 mi Calm Calm - N/A   Mostly Cloudy
9:15 AM 36.5 °F 33.9 °F 32.0 °F 84% 30.14 in 10.0 mi NW 3.5 mph - N/A   Scattered Clouds
9:35 AM 36.7 °F 32.9 °F 32.0 °F 83% 30.15 in 10.0 mi West 4.6 mph - N/A   Scattered Clouds
9:55 AM 36.9 °F 34.3 °F 32.0 °F 83% 30.15 in 10.0 mi WNW 3.5 mph - N/A   Mostly Cloudy
10:15 AM 37.4 °F 32.1 °F 32.0 °F 81% 30.16 in 10.0 mi West 6.9 mph - N/A   Scattered Clouds
10:35 AM 37.6 °F 33.1 °F 31.8 °F 80% 30.16 in 10.0 mi West 5.8 mph - N/A   Clear
10:55 AM 37.9 °F 33.5 °F 32.0 °F 79% 30.17 in 10.0 mi West 5.8 mph - N/A   Clear
11:15 AM 38.3 °F 34.8 °F 32.0 °F 78% 30.17 in 10.0 mi West 4.6 mph - N/A   Clear
11:35 AM 38.5 °F 34.1 °F 32.2 °F 78% 30.16 in 10.0 mi West 5.8 mph - N/A   Clear
11:55 AM 39.2 °F 37.0 °F 32.0 °F 75% 30.16 in 10.0 mi West 3.5 mph - N/A   Scattered Clouds
12:15 PM 40.3 °F 37.1 °F 32.2 °F 73% 30.14 in 10.0 mi WSW 4.6 mph - N/A   Scattered Clouds
12:35 PM 41.2 °F 38.2 °F 30.7 °F 66% 30.14 in 10.0 mi NNW 4.6 mph - N/A   Clear
12:55 PM 41.2 °F 38.2 °F 29.7 °F 64% 30.13 in 10.0 mi NNW 4.6 mph - N/A   Clear
1:15 PM 42.1 °F 39.2 °F 30.9 °F 65% 30.12 in 10.0 mi NNW 4.6 mph - N/A   Clear
1:35 PM 43.3 °F 40.7 °F 31.5 °F 63% 30.12 in 10.0 mi WNW 4.6 mph - N/A   Clear
1:55 PM 43.9 °F 39.9 °F 31.6 °F 62% 30.12 in 10.0 mi NW 6.9 mph - N/A   Clear
2:15 PM 43.2 °F 39.0 °F 32.0 °F 65% 30.12 in 10.0 mi NNW 6.9 mph - N/A   Clear
2:35 PM 42.8 °F 38.0 °F 31.6 °F 65% 30.12 in 10.0 mi NW 8.1 mph - N/A   Clear
2:55 PM 42.3 °F 35.9 °F 30.7 °F 64% 30.12 in 10.0 mi NNW 11.5 mph - N/A   Clear
3:15 PM 42.1 °F 36.6 °F 29.5 °F 61% 30.13 in 10.0 mi NW 9.2 mph 16.1 mph N/A   Clear
3:35 PM 41.9 °F 37.5 °F 28.4 °F 59% 30.14 in 10.0 mi North 6.9 mph - N/A   Clear
3:55 PM 41.4 °F 37.6 °F 26.2 °F 55% 30.15 in 10.0 mi North 5.8 mph - N/A   Clear
4:15 PM 42.1 °F 36.6 °F 25.9 °F 53% 30.16 in 10.0 mi NW 9.2 mph - N/A   Clear
4:55 PM 41.0 °F 35.2 °F 25.5 °F 54% 30.17 in 10.0 mi NW 9.2 mph - N/A   Clear
5:15 PM 39.7 °F 33.2 °F 25.0 °F 56% 30.18 in 10.0 mi NW 10.4 mph - N/A   Clear
5:35 PM 39.2 °F 33.6 °F 24.4 °F 56% 30.19 in 10.0 mi NW 8.1 mph - N/A   Clear
5:55 PM 38.5 °F 33.4 °F 23.7 °F 55% 30.21 in 10.0 mi NW 6.9 mph - N/A   Clear
6:15 PM 37.0 °F 31.6 °F 23.2 °F 57% 30.21 in 10.0 mi NNW 6.9 mph - N/A   Clear
6:35 PM 36.7 °F 32.0 °F 22.8 °F 57% 30.22 in 10.0 mi NNW 5.8 mph - N/A   Clear
6:55 PM 36.1 °F 31.4 °F 21.6 °F 56% 30.22 in 10.0 mi North 5.8 mph - N/A   Clear
7:15 PM 36.0 °F - 20.3 °F 53% 30.23 in 10.0 mi Calm Calm - N/A   Clear
7:35 PM 35.1 °F 30.1 °F 19.9 °F 54% 30.23 in 10.0 mi NW 5.8 mph - N/A   Clear
7:55 PM 35.1 °F - 19.6 °F 53% 30.24 in 10.0 mi Calm Calm - N/A   Clear
8:15 PM 34.2 °F 31.2 °F 19.0 °F 54% 30.24 in 10.0 mi North 3.5 mph - N/A   Clear
8:35 PM 30.6 °F - 21.7 °F 70% 30.25 in 10.0 mi Calm Calm - N/A   Clear
8:55 PM 27.9 °F 24.0 °F 23.0 °F 82% 30.25 in 10.0 mi WSW 3.5 mph - N/A   Clear
9:15 PM 27.5 °F - 23.4 °F 84% 30.26 in 10.0 mi Calm Calm - N/A   Clear
9:35 PM 27.5 °F - 23.0 °F 83% 30.26 in 10.0 mi Calm Calm - N/A   Clear
9:55 PM 26.1 °F - 22.5 °F 86% 30.26 in 10.0 mi Calm Calm - N/A   Clear
10:15 PM 25.0 °F - 22.1 °F 89% 30.26 in 10.0 mi Calm Calm - N/A   Clear
10:35 PM 24.6 °F - 22.3 °F 91% 30.26 in 10.0 mi Calm Calm - N/A   Clear
10:55 PM 23.2 °F - 19.8 °F 87% 30.26 in 10.0 mi Calm Calm - N/A   Clear
11:15 PM 23.9 °F - 22.1 °F 93% 30.27 in 10.0 mi Calm Calm - N/A   Clear
11:35 PM 21.9 °F - 19.4 °F 90% 30.29 in 10.0 mi Calm Calm - N/A   Clear
11:55 PM 22.8 °F - 20.8 °F 92% 30.30 in 10.0 mi Calm Calm - N/A   Clear